When you browse on this site, cookies collect data to enhance your experience and personalize the content and advertising you see.
Visit our Privacy Policy to learn more. By continuing to use the site, you agree to this use of cookies and data.
  • en Suisse
  • Liste des pays
  • À 7 jours
  • Température de l'eau
  • Carte météo
  • Widgets météo
  • user-avatar
    Se connecter

    Météo par heure à Bad Kreuznach

    Ce jour, 7 Juin, Dimanche

    Heure Température Précipitation Vent Pression Humidité
    00:00 +10°C° 0 mm 2 m/s 741 mmHg 87%
    01:00 +10°C° 0 mm 2 m/s 742 mmHg 88%
    02:00 +10°C° 0 mm 2 m/s 742 mmHg 89%
    03:00 +9°C° 0 mm 2 m/s 742 mmHg 89%
    04:00 +9°C° 0 mm 2 m/s 742 mmHg 90%
    05:00 +10°C° 0 mm 2 m/s 742 mmHg 87%
    06:00 +12°C° 0 mm 2 m/s 742 mmHg 83%
    07:00 +13°C° 0 mm 2 m/s 743 mmHg 80%
    08:00 +13°C° 0 mm 3 m/s 743 mmHg 72%
    09:00 +14°C° 0 mm 4 m/s 743 mmHg 64%
    10:00 +15°C° 0 mm 4 m/s 743 mmHg 56%
    11:00 +17°C° 0 mm 4 m/s 743 mmHg 56%
    12:00 +17°C° 0 mm 3 m/s 743 mmHg 56%
    13:00 +18°C° 0 mm 3 m/s 744 mmHg 56%
    14:00 +18°C° 0.1 mm 3 m/s 744 mmHg 57%
    15:00 +18°C° 0.1 mm 3 m/s 744 mmHg 59%
    16:00 +19°C° 0.1 mm 3 m/s 744 mmHg 60%
    17:00 +18°C° 0.2 mm 2 m/s 744 mmHg 65%
    18:00 +17°C° 0.2 mm 2 m/s 744 mmHg 70%
    19:00 +18°C° 0.2 mm 1 m/s 744 mmHg 75%
    20:00 +15°C° 0 mm 1 m/s 744 mmHg 78%
    21:00 +13°C° 0 mm 1 m/s 745 mmHg 80%
    22:00 +12°C° 0 mm 1 m/s 745 mmHg 83%
    23:00 +11°C° 0 mm 1 m/s 745 mmHg 83%

    Demain, 8 Juin, Lundi

    Heure Température Précipitation Vent Pression Humidité
    00:00 +11°C° 0 mm 1 m/s 745 mmHg 84%
    01:00 +10°C° 0 mm 1 m/s 746 mmHg 84%
    02:00 +10°C° 0 mm 1 m/s 746 mmHg 85%
    03:00 +10°C° 0 mm 1 m/s 746 mmHg 86%
    04:00 +9°C° 0 mm 1 m/s 746 mmHg 87%
    05:00 +11°C° 0 mm 1 m/s 746 mmHg 84%
    06:00 +12°C° 0 mm 1 m/s 746 mmHg 80%
    07:00 +14°C° 0 mm 1 m/s 747 mmHg 77%
    08:00 +15°C° 0 mm 1 m/s 747 mmHg 70%
    09:00 +18°C° 0 mm 1 m/s 747 mmHg 63%
    10:00 +20°C° 0 mm 1 m/s 747 mmHg 56%
    11:00 +21°C° 0 mm 1 m/s 747 mmHg 53%
    12:00 +22°C° 0 mm 1 m/s 746 mmHg 50%
    13:00 +22°C° 0 mm 1 m/s 746 mmHg 47%
    14:00 +23°C° 0.1 mm 1 m/s 746 mmHg 46%
    15:00 +23°C° 0.1 mm 1 m/s 746 mmHg 46%
    16:00 +23°C° 0.1 mm 1 m/s 746 mmHg 45%
    17:00 +22°C° 0.1 mm 1 m/s 746 mmHg 52%
    18:00 +21°C° 0.1 mm 1 m/s 746 mmHg 59%
    19:00 +20°C° 0.1 mm 1 m/s 746 mmHg 65%
    20:00 +19°C° 0 mm 1 m/s 746 mmHg 68%
    21:00 +16°C° 0 mm 1 m/s 746 mmHg 72%
    22:00 +14°C° 0 mm 1 m/s 747 mmHg 75%
    23:00 +14°C° 0 mm 1 m/s 747 mmHg 77%

    Après-demain, 9 Juin, Mardi

    Heure Température Précipitation Vent Pression Humidité
    00:00 +13°C° 0 mm 1 m/s 747 mmHg 80%
    01:00 +12°C° 0 mm 1 m/s 747 mmHg 83%
    02:00 +12°C° 0 mm 1 m/s 747 mmHg 83%
    03:00 +12°C° 0 mm 1 m/s 747 mmHg 84%
    04:00 +11°C° 0 mm 1 m/s 747 mmHg 85%
    05:00 +12°C° 0 mm 1 m/s 747 mmHg 83%
    06:00 +13°C° 0 mm 2 m/s 748 mmHg 81%
    07:00 +15°C° 0 mm 2 m/s 748 mmHg 79%
    08:00 +16°C° 0.1 mm 2 m/s 748 mmHg 75%
    09:00 +18°C° 0.1 mm 3 m/s 748 mmHg 70%
    10:00 +19°C° 0.1 mm 3 m/s 748 mmHg 66%
    11:00 +20°C° 0.3 mm 3 m/s 748 mmHg 64%
    12:00 +21°C° 0.3 mm 3 m/s 748 mmHg 61%
    13:00 +22°C° 0.3 mm 3 m/s 748 mmHg 59%
    14:00 +21°C° 0.4 mm 3 m/s 748 mmHg 61%
    15:00 +21°C° 0.4 mm 3 m/s 748 mmHg 64%
    16:00 +21°C° 0.4 mm 3 m/s 747 mmHg 66%
    17:00 +20°C° 0.2 mm 3 m/s 748 mmHg 70%
    18:00 +19°C° 0.2 mm 3 m/s 748 mmHg 74%
    19:00 +18°C° 0.2 mm 2 m/s 748 mmHg 77%
    20:00 +17°C° 0.2 mm 2 m/s 748 mmHg 80%
    21:00 +16°C° 0.2 mm 2 m/s 748 mmHg 83%
    22:00 +15°C° 0.2 mm 2 m/s 749 mmHg 87%
    23:00 +15°C° 0.2 mm 2 m/s 749 mmHg 88%

    10 Juin, Mercredi

    Heure Température Précipitation Vent Pression Humidité
    00:00 +14°C° 0.2 mm 2 m/s 749 mmHg 90%
    01:00 +14°C° 0.2 mm 1 m/s 749 mmHg 91%
    02:00 +14°C° 0.1 mm 1 m/s 749 mmHg 91%
    03:00 +14°C° 0.1 mm 1 m/s 749 mmHg 92%
    04:00 +14°C° 0.1 mm 1 m/s 749 mmHg 92%
    05:00 +14°C° 0 mm 1 m/s 749 mmHg 91%
    06:00 +15°C° 0 mm 2 m/s 749 mmHg 90%
    07:00 +15°C° 0 mm 2 m/s 749 mmHg 90%
    08:00 +16°C° 0.3 mm 2 m/s 749 mmHg 85%
    09:00 +17°C° 0.3 mm 2 m/s 749 mmHg 81%
    10:00 +18°C° 0.3 mm 2 m/s 749 mmHg 77%
    11:00 +19°C° 0.2 mm 2 m/s 749 mmHg 72%
    12:00 +20°C° 0.2 mm 2 m/s 748 mmHg 67%
    13:00 +21°C° 0.2 mm 2 m/s 748 mmHg 62%
    14:00 +20°C° 0.4 mm 2 m/s 748 mmHg 65%
    15:00 +20°C° 0.4 mm 2 m/s 748 mmHg 69%
    16:00 +20°C° 0.4 mm 2 m/s 747 mmHg 72%
    17:00 +19°C° 0.5 mm 2 m/s 747 mmHg 77%
    18:00 +18°C° 0.5 mm 2 m/s 747 mmHg 81%
    19:00 +17°C° 0.5 mm 2 m/s 747 mmHg 85%
    20:00 +16°C° 0.1 mm 1 m/s 747 mmHg 86%
    21:00 +15°C° 0.1 mm 1 m/s 747 mmHg 87%
    22:00 +14°C° 0.1 mm 1 m/s 748 mmHg 88%
    23:00 +14°C° 0 mm 1 m/s 747 mmHg 89%

    11 Juin, Jeudi

    Heure Température Précipitation Vent Pression Humidité
    00:00 +13°C° 0 mm 1 m/s 747 mmHg 89%
    01:00 +12°C° 0 mm 1 m/s 747 mmHg 89%
    02:00 +12°C° 0 mm 1 m/s 746 mmHg 90%
    03:00 +11°C° 0 mm 1 m/s 746 mmHg 90%
    04:00 +11°C° 0 mm 1 m/s 746 mmHg 91%
    05:00 +12°C° 0 mm 1 m/s 746 mmHg 90%
    06:00 +13°C° 0 mm 1 m/s 746 mmHg 89%
    07:00 +14°C° 0 mm 2 m/s 746 mmHg 89%
    08:00 +15°C° 0 mm 2 m/s 746 mmHg 85%
    09:00 +16°C° 0 mm 2 m/s 746 mmHg 81%
    10:00 +18°C° 0 mm 3 m/s 745 mmHg 78%
    11:00 +18°C° 0.3 mm 3 m/s 745 mmHg 78%
    12:00 +18°C° 0.3 mm 4 m/s 745 mmHg 79%
    13:00 +18°C° 0.3 mm 4 m/s 744 mmHg 80%
    14:00 +19°C° 0.1 mm 4 m/s 744 mmHg 76%
    15:00 +20°C° 0.1 mm 4 m/s 744 mmHg 71%
    16:00 +20°C° 0.1 mm 4 m/s 743 mmHg 67%
    17:00 +20°C° 0 mm 4 m/s 743 mmHg 70%
    18:00 +19°C° 0 mm 4 m/s 743 mmHg 73%
    19:00 +19°C° 0 mm 3 m/s 743 mmHg 76%
    20:00 +17°C° 0 mm 3 m/s 743 mmHg 80%
    21:00 +16°C° 0 mm 3 m/s 744 mmHg 83%
    22:00 +14°C° 0 mm 3 m/s 744 mmHg 87%
    23:00 +13°C° 0 mm 3 m/s 744 mmHg 89%

    12 Juin, Vendredi

    Heure Température Précipitation Vent Pression Humidité
    00:00 +13°C° 0 mm 2 m/s 743 mmHg 91%
    01:00 +13°C° 0 mm 2 m/s 743 mmHg 93%
    02:00 +12°C° 0 mm 2 m/s 743 mmHg 93%
    03:00 +12°C° 0 mm 1 m/s 743 mmHg 93%
    04:00 +12°C° 0 mm 1 m/s 743 mmHg 94%
    05:00 +13°C° 0 mm 1 m/s 743 mmHg 91%
    06:00 +14°C° 0 mm 2 m/s 743 mmHg 88%
    07:00 +15°C° 0 mm 2 m/s 743 mmHg 85%
    08:00 +17°C° 0 mm 2 m/s 743 mmHg 82%
    09:00 +18°C° 0 mm 2 m/s 743 mmHg 79%
    10:00 +19°C° 0 mm 2 m/s 743 mmHg 76%
    11:00 +20°C° 0 mm 3 m/s 742 mmHg 73%
    12:00 +21°C° 0 mm 3 m/s 742 mmHg 70%
    13:00 +22°C° 0 mm 4 m/s 741 mmHg 67%
    14:00 +22°C° 0 mm 4 m/s 741 mmHg 65%
    15:00 +23°C° 0 mm 4 m/s 740 mmHg 63%
    16:00 +25°C° 0 mm 4 m/s 740 mmHg 61%
    17:00 +23°C° 0 mm 4 m/s 739 mmHg 65%
    18:00 +24°C° 0 mm 3 m/s 739 mmHg 69%
    19:00 +23°C° 0 mm 2 m/s 739 mmHg 72%
    20:00 +21°C° 0.1 mm 2 m/s 739 mmHg 77%
    21:00 +20°C° 0.1 mm 2 m/s 739 mmHg 82%
    22:00 +18°C° 0.1 mm 2 m/s 740 mmHg 86%
    23:00 +17°C° 0.7 mm 2 m/s 740 mmHg 89%
    Voir plus